CDT,Max TemperatureF,Mean TemperatureF,Min TemperatureF,Max Dew PointF,MeanDew PointF,Min DewpointF,Max Humidity, Mean Humidity, Min Humidity, Max Sea Level PressureIn, Mean Sea Level PressureIn, Min Sea Level PressureIn, Max VisibilityMiles, Mean VisibilityMiles, Min VisibilityMiles, Max Wind SpeedMPH, Mean Wind SpeedMPH, Max Gust SpeedMPH,PrecipitationIn, CloudCover, Events, WindDirDegrees
2013-9-1,88,76,64,63,54,45,84,50,23,30.05,29.98,29.84,10,10,10,25,13,34,0.00,1,Thunderstorm,23
2013-9-2,93,73,53,56,52,50,90,51,24,30.11,30.03,29.95,10,10,9,14,4,20,0.00,0,,158
2013-9-3,97,80,62,56,54,48,70,43,24,30.03,29.96,29.89,10,10,10,18,9,24,0.00,0,,166
2013-9-4,102,82,62,56,54,51,73,41,19,30.03,29.98,29.94,10,10,10,17,9,28,0.00,0,,142
2013-9-5,100,85,70,57,53,50,59,38,20,30.07,30.01,29.96,10,10,10,20,8,26,0.00,0,,166
2013-9-6,106,83,60,53,48,44,65,32,13,29.99,29.92,29.83,10,10,7,15,8,24,0.00,0,,175
2013-9-7,106,85,63,66,49,42,73,33,12,29.91,29.86,29.81,10,10,10,12,6,16,0.00,0,,206
2013-9-8,105,83,61,68,58,46,100,58,15,29.95,29.82,29.71,10,7,0,20,6,28,0.00,0,Fog,121
2013-9-9,99,87,75,54,52,44,46,33,15,29.85,29.73,29.66,10,10,10,17,13,30,0.00,0,,198
2013-9-10,93,80,66,66,60,54,88,57,32,30.11,29.93,29.79,10,10,2,22,10,30,0.14,3,Rain-Thunderstorm,42
2013-9-11,84,75,65,66,65,61,100,86,54,30.21,30.12,30.02,10,8,3,16,8,28,0.23,5,Rain-Thunderstorm,58
2013-9-12,74,70,65,66,64,60,100,90,64,30.27,30.21,30.14,10,6,2,16,5,,0.04,7,Rain,72
2013-9-13,67,62,56,58,54,51,94,77,63,30.23,30.14,30.02,10,9,2,17,10,22,0.15,8,Rain,130
2013-9-14,80,70,59,65,58,52,82,72,58,30.06,29.92,29.80,10,10,7,16,9,26,0.01,6,Rain-Thunderstorm,153
2013-9-15,69,65,60,65,59,54,100,85,68,30.26,30.04,29.87,10,8,1,23,10,28,0.46,7,Rain-Thunderstorm,37
2013-9-16,63,60,56,55,53,51,100,86,80,30.30,30.23,30.14,10,10,7,13,9,,0.00,8,,103
2013-9-17,87,72,57,64,61,55,100,81,44,30.14,29.94,29.75,10,6,1,16,8,22,0.01,5,,156
2013-9-18,95,80,64,63,61,54,90,59,29,29.77,29.67,29.59,10,10,8,23,10,31,0.00,1,Thunderstorm,201
2013-9-19,73,61,48,61,54,47,94,70,44,30.12,29.88,29.70,10,10,6,26,12,33,0.03,2,Rain-Thunderstorm,344
2013-9-20,76,60,43,47,45,42,97,64,34,30.18,30.09,30.00,10,9,4,9,4,16,0.00,0,,234
2013-9-21,85,67,48,54,49,44,83,55,30,30.00,29.88,29.75,10,10,10,18,6,23,0.00,0,,193
2013-9-22,88,71,54,54,50,46,69,48,29,29.75,29.66,29.56,10,10,10,32,13,40,0.00,0,,165
2013-9-23,71,64,57,54,49,44,78,63,38,29.85,29.59,29.44,10,10,8,25,20,33,T,3,Rain,249
2013-9-24,80,65,50,50,43,33,86,54,19,30.02,29.94,29.83,10,10,6,18,14,28,0.00,0,,330
2013-9-25,87,68,48,51,48,44,90,53,25,29.89,29.69,29.49,10,10,8,33,12,41,0.00,0,,142
2013-9-26,88,71,54,52,49,47,75,47,27,29.62,29.56,29.47,10,10,10,25,13,33,0.00,0,,182
2013-9-27,76,63,50,61,55,46,94,76,48,29.85,29.69,29.55,10,8,0,30,14,51,1.28,5,Fog-Rain-Thunderstorm,333
2013-9-28,70,57,44,46,40,34,90,61,27,30.09,30.02,29.88,10,10,10,22,14,30,0.00,2,,293
2013-9-29,80,60,40,44,41,37,93,55,22,30.09,29.95,29.82,10,10,10,21,8,26,0.00,0,,203
2013-9-30,87,67,46,50,46,42,90,53,21,29.81,29.75,29.68,10,10,10,14,8,16,0.00,0,,199